Location: Slidell
(30.2789°N, 89.7378°W)
Time: 05:30:42
(UTC-05:00)

Daily predictions for brighter satellites

Satellite Brightness Start Highest point End
(mag) Time Altitude Azimuth Time Altitude Azimuth Time Altitude Azimuth
Cosmos 2227 Rocket 4.0 00:03:58 10° N 00:06:32 26° N 00:06:32 26° N
Cosmos 2297 Rocket 4.4 00:58:20 10° NNW 01:00:02 20° NNW 01:00:02 20° NNW
Cosmos 2322 Rocket 4.5 01:23:57 18° NE 01:23:57 18° NE 01:25:29 10° NE
Cosmos 2263 Rocket 4.0 02:03:49 10° N 02:07:40 27° NE 02:07:40 27° NE
Cosmos 2360 Rocket 4.0 02:13:50 26° NE 02:13:50 26° NE 02:16:31 10° NE
CZ-4C R/B 3.5 02:04:27 10° NNW 02:09:35 50° NNW 02:09:35 50° NNW
Cosmos 1980 Rocket 4.4 02:14:35 17° NW 02:14:35 17° NW 02:16:36 10° NNW
USA 234 3.8 02:20:55 10° NNE 02:26:14 53° N 02:26:14 53° N
ADEOS Rocket 3.7 02:34:50 10° NNE 02:39:03 47° NNE 02:39:03 47° NNE
ATLAS 2AS CENTAUR R/B 3.0 02:47:50 70° E 02:47:50 70° E 02:55:25 10° NNE
SL-16 R/B 4.0 02:58:20 22° NW 02:58:20 22° NW 03:01:17 10° N
ARIANE 5 R/B 3.8 02:52:47 10° NNE 02:56:25 37° ENE 02:56:25 37° ENE
SL-16 R/B 3.2 02:58:12 46° E 02:59:03 49° ENE 03:05:03 10° N
Cosmos 2322 Rocket 4.1 03:05:45 20° NW 03:05:45 20° NW 03:08:39 10° NNW
Cosmos 2184 Rocket 4.2 03:09:29 65° N 03:09:29 65° N 03:14:41 10° N
Resurs 1-4 Rocket 2.7 03:07:34 10° NNE 03:11:36 53° NNE 03:11:36 53° NNE
Cosmos 1486 Rocket 4.3 03:23:44 10° NNW 03:28:16 63° NNE 03:28:16 63° NNE
Iridium 4 Rocket 3.8 03:33:04 71° NW 03:33:04 71° NW 03:38:14 10° N
Cosmos 2058 Rocket 4.3 03:35:06 36° NNW 03:35:06 36° NNW 03:37:50 10° N
CZ-2D R/B 2.5 03:34:27 10° N 03:39:11 54° NW 03:39:11 54° NW
Nadezhda 3 Rocket 4.2 03:37:46 10° N 03:44:01 68° E 03:46:29 38° SSE
Cosmos 1271 Rocket 4.1 03:47:37 35° N 03:47:37 35° N 03:50:01 10° N
Cosmos 1340 Rocket 4.0 03:44:13 10° N 03:47:53 39° ENE 03:47:53 39° ENE
OAO 3 Rocket 4.0 03:49:07 43° NNW 03:49:52 47° N 03:54:34 10° ENE
NOSS 0 Rocket 4.4 03:50:15 42° SSE 03:52:02 55° ESE 03:58:04 10° NNE
Cosmos 2263 Rocket 4.0 03:47:35 10° NW 03:49:18 18° NW 03:49:18 18° NW
BREEZE-M DEB (TANK) 4.1 03:54:09 22° N 03:54:09 22° N 03:56:31 10° NNE
Cosmos 2360 Rocket 3.8 03:55:37 21° WNW 03:55:37 21° WNW 03:59:29 10° NNW
Cosmos 2219 Rocket 2.0 03:57:16 69° SSW 03:57:59 85° WNW 04:03:42 10° NNE
Cosmos 1241 Rocket 4.5 03:58:48 54° SSW 04:00:28 88° ESE 04:07:03 10° NNE
Cosmos 1544 3.8 04:01:17 52° ENE 04:01:17 52° ENE 04:04:27 10° NNE
Okean O Rocket 4.0 03:57:43 10° NE 04:00:50 19° E 04:03:57 10° SE
UNKNOWN OBJECT B 3.6 03:58:44 10° N 04:01:32 44° NNW 04:01:32 44° NNW
Cosmos 1980 4.1 04:00:58 41° SSE 04:02:41 59° ESE 04:08:16 10° NNE
Cosmos 2154 Rocket 4.1 04:02:16 52° WSW 04:03:01 55° W 04:09:10 10° N
Cosmos 2237 Rocket 2.7 04:02:08 37° SSE 04:04:02 55° ESE 04:09:31 10° NNE
COSMOS 2428 3.3 04:04:34 41° WNW 04:04:54 41° WNW 04:10:19 10° N
CZ-2D R/B 3.6 04:01:19 10° N 04:05:07 63° NNW 04:05:07 63° NNW
Intercosmos 24 4.2 04:06:44 58° NNW 04:06:44 58° NNW 04:10:39 10° N
ERBS 3.2 04:10:04 50° NE 04:10:04 50° NE 04:12:43 10° NE
Cosmos 1607 4.0 04:03:04 10° NNW 04:09:33 85° ENE 04:16:00 10° SSE
Cosmos 1758 4.5 04:09:26 31° SE 04:10:40 40° E 04:14:27 10° NNE
Cosmos 1844 Rocket 2.9 04:06:47 10° NNW 04:12:27 70° ENE 04:18:05 10° SSE
ADEOS 4.4 04:08:44 10° N 04:13:22 33° WNW 04:13:24 33° WNW
Abrixas rocket 3.1 04:16:26 45° N 04:16:26 45° N 04:19:02 10° NE
Cosmos 1953 3.5 04:14:58 26° SE 04:16:38 40° E 04:20:24 10° NNE
Cosmos 1503 Rocket 3.9 04:16:20 10° NNW 04:21:37 68° WSW 04:24:05 32° S
MOZ.5/SAFIR/RUBIN 5/SL-8 3.7 04:21:39 55° WSW 04:21:57 56° W 04:26:31 10° NNW
Cosmos 2366 rocket 4.3 04:18:04 18° S 04:22:43 64° E 04:28:50 10° NNE
Lacrosse 5 2.4 04:21:24 34° S 04:23:10 50° ESE 04:28:05 10° NE
Cosmos 2333 Rocket 2.3 04:21:52 45° SW 04:23:29 63° WNW 04:29:07 10° NNE
Cosmos 2341 Rocket 4.3 04:23:28 39° SW 04:25:22 51° W 04:31:34 10° N
Tiangong 1 1.9 04:28:21 41° ENE 04:28:21 41° ENE 04:30:20 10° ENE
NOSS 8 (A) 4.4 04:29:05 65° SSE 04:29:21 69° ESE 04:32:36 10° NE
Milstar 3 4.5 04:31:06 19° SSW 04:31:06 19° SSW 04:36:43 10° SSE
PSLV R/B 4.2 04:29:18 10° NNE 04:33:14 63° E 04:35:12 28° S
CZ-4B R/B 3.4 04:31:36 10° NNE 04:35:30 55° E 04:38:05 21° S
ARIANE 5 R/B 4.2 04:33:11 10° NNW 04:36:25 17° WNW 04:36:45 17° WNW
ATLAS 2AS CENTAUR R/B 4.4 04:35:16 17° W 04:39:08 24° NW 04:45:27 10° N
Cosmos 864 Rocket 4.5 04:34:56 16° S 04:39:57 86° E 04:46:07 10° N
PSLV R/B 4.1 04:36:23 10° NNE 04:40:43 58° E 04:44:07 16° S
Cosmos 2278 Rocket 3.4 04:36:32 10° N 04:41:57 45° ENE 04:47:20 10° SE
SL-16 R/B 3.8 04:43:18 20° W 04:43:18 20° W 04:47:15 10° NW
Atlas Centaur 2 2.0 04:42:39 34° SSW 04:43:43 40° SSE 04:48:12 10° E
Meteor 1-24 Rocket 3.9 04:38:37 10° NNW 04:43:53 49° W 04:47:17 22° SSW
Cosmos 2218 Rocket 4.0 04:40:12 21° SSW 04:44:33 72° W 04:50:53 10° N
GENESIS II 4.0 04:41:17 10° NNW 04:45:12 76° WSW 04:49:01 10° SSE
NOSS 3-4 (A) 3.4 04:42:42 26° SSW 04:46:29 85° WNW 04:52:54 10° NNE
NOSS 3-4 (C) 3.4 04:42:45 26° SSW 04:46:33 86° WNW 04:52:59 10° NNE
Intelsat 5-1 Rocket 3.2 04:46:17 30° SW 04:48:16 45° S 04:58:36 10° ESE
ADEOS II 2.0 04:43:12 10° N 04:48:27 79° WNW 04:52:16 19° SSW
Cosmos 1733 3.6 04:46:43 16° S 04:49:39 65° E 04:53:30 10° NNE
KM-V1 4.1 04:47:56 19° W 04:51:19 86° N 04:54:06 10° E
SL-16 R/B 2.7 04:46:42 12° S 04:51:52 57° ESE 04:57:25 10° NNE
ISS -2.3 04:58:22 21° S 04:58:22 21° S 04:59:47 10° SSE
Cosmos 1674 2.8 04:57:23 10° N 05:01:15 77° E 05:05:05 10° S
SEDSat Delta rocket 2.9 05:00:36 19° W 05:03:25 74° N 05:07:42 10° E
SeaSat 1 3.2 04:58:56 10° SE 05:03:44 56° ENE 05:08:33 10° NNW
ATLAS 2A CENTAUR R/B 2.4 05:03:20 26° S 05:03:53 30° SSE 05:07:34 10° E
Cosmos-2242 3.5 05:01:38 10° S 05:05:48 61° E 05:10:01 10° NNE
Landsat 4 4.2 05:02:39 10° SSE 05:06:20 62° ENE 05:10:01 10° N
Cosmos 1844 3.9 05:01:24 10° NNW 05:06:48 49° WSW 05:12:14 10° S
Meteor PRIRODA 4.4 05:04:46 10° NNE 05:08:26 52° E 05:12:02 10° S
ATLAS 3B R/B 2.6 05:06:08 10° NW 05:12:33 56° WSW 05:18:49 10° S
USA 161 3.2 05:18:26 17° W 05:18:26 17° W 05:20:32 10° NW
KORONAS-FOTON 3.8 05:18:32 10° N 05:22:29 83° W 05:26:24 10° S
Cosmos 1821 Rocket 4.5 05:21:16 10° S 05:27:35 68° E 05:33:55 10° NNE
BREEZE-M DEB (TANK) 4.1 05:19:25 10° NW 05:28:41 31° WSW 05:32:06 10° S
Meteor 1-16 Rocket 4.5 05:25:39 10° S 05:31:20 77° E 05:37:12 10° N
OAO 3 Rocket 3.4 05:28:53 10° WNW 05:33:44 74° NNE 05:38:39 10° ESE
SL-14 R/B 4.1 05:31:01 10° N 05:34:55 55° E 05:38:51 10° SSE
Okean O Rocket 2.7 05:33:19 10° NNW 05:37:09 29° WNW 05:40:57 10° SW
USA 238 DEB 4.0 05:32:32 10° NW 05:39:17 47° WSW 05:46:03 10° S
Okean 3 Rocket 4.4 05:35:28 10° NNW 05:39:23 31° W 05:43:18 10° SSW
USA 238 4.0 05:32:38 10° NW 05:39:23 47° WSW 05:46:10 10° S
Cosmos 2297 4.4 05:35:12 10° NNW 05:40:47 62° ENE 05:46:21 10° SSE
Cosmos 1076 Rocket 4.0 05:36:59 10° NNW 05:40:57 38° W 05:44:54 10° SSW
Cosmos 968 Rocket 4.1 05:36:26 10° NW 05:41:00 33° W 05:45:32 10° SSW
GPS 2-05 Rocket1 4.1 05:40:35 10° SW 05:43:29 30° SSE 05:46:28 10° E
Lacrosse 5 rocket 1.4 05:41:47 10° NW 05:45:55 73° SW 05:50:18 10° SSE
Cosmos 2237 Rocket 3.9 05:44:58 10° W 05:48:23 16° WNW 05:51:48 10° NNW
MTI 3.7 05:45:35 10° S 05:48:49 79° W 05:52:04 10° NNW
Cosmos 1766 Rocket 3.8 05:46:08 10° NNW 05:50:29 51° W 05:54:45 10° SSW
